Temperature
16 16 15 15 15 14 14 14 14 14 14 14 13 13 13 13 13 13 13 13 13 12 12 12 12 12 12 12 12 12 12 12 12 12 12 11 11 11 11 11 11 11 11
16 16 15 15 15 14 14 14 14 14 14 13 13 13 13 13 13 13 13 12 12 12 12 12 12 12 12 12 12 12 12 12 11 11 11 11 11 11 11 11 11 11 11
16 16 15 15 15 14 14 14 14 14 13 13 13 13 13 13 13 13 13 12 12 12 12 12 12 12 12 11 11 11 11 11 11 11 11 11 11 11 11 11 11 11 10
16 16 15 15 15 14 14 14 14 13 13 13 13 13 13 13 13 13 13 12 12 12 12 12 11 11 11 11 11 11 11 11 11 11 11 11 11 11 11 10 10 10 10
16 15 15 15 14 14 14 14 13 13 13 13 13 13 12 12 12 12 12 12 12 12 12 12 11 11 11 11 11 11 10 10 10 10 10 10 10 10 10 10 10 10 10
15 15 15 15 14 14 14 14 13 13 13 13 13 13 12 12 12 12 12 12 12 12 12 11 11 11 11 11 11 10 10 10 10 10 10 10 10 10 10 10 10 10 10
15 15 15 14 14 14 14 14 13 13 13 13 13 12 12 12 12 12 12 12 12 12 11 11 11 11 11 11 10 10 10 10 10 10 10 10 10 10 9 9 9 9 9
15 15 14 14 14 14 14 14 13 13 13 13 13 12 12 12 12 12 12 12 12 11 11 11 11 11 11 10 10 10 10 10 10 10 9 9 9 9 9 9 9 9 9
15 14 14 14 14 14 14 13 13 13 13 13 13 12 12 12 12 12 12 12 11 11 11 11 11 11 10 10 10 10 10 10 10 9 9 9 9 9 9 9 9 8 9
14 14 14 14 13 13 13 13 13 13 13 13 12 12 12 12 12 12 11 11 11 11 11 11 10 10 10 10 10 10 10 10 9 9 9 9 9 9 9 9 8 8 8
14 14 14 13 13 13 13 13 13 12 12 12 12 12 12 12 11 11 11 11 11 11 10 10 10 10 10 10 10 9 9 9 9 9 9 9 9 9 9 8 8 8 8
14 14 13 13 13 13 12 12 12 12 12 12 12 12 11 11 11 11 11 11 10 10 10 10 10 10 10 9 9 9 9 9 9 8 8 8 8 8 8 8 8 8 8
13 13 13 13 13 12 12 12 12 12 12 11 11 11 11 11 11 11 11 10 10 10 10 10 9 9 9 9 9 9 9 8 8 8 8 8 8 8 8 7 7 7 7
13 13 13 12 12 12 12 12 12 11 11 11 11 11 11 10 10 10 10 10 9 9 9 9 9 9 9 9 9 8 8 8 8 8 8 7 7 7 7 7 7 7 7
12 12 12 12 12 11 11 11 11 11 11 11 10 10 10 10 10 10 9 9 9 9 9 9 9 8 8 8 8 8 8 8 8 7 7 7 7 7 7 7 6 6 6
12 12 12 12 11 11 11 11 10 10 10 10 10 10 10 9 9 9 9 9 8 8 8 8 8 8 8 8 8 7 7 7 7 7 7 7 6 6 6 6 6 6 5
12 11 11 11 11 11 11 10 10 10 10 10 9 9 9 9 9 9 8 8 8 8 8 7 7 7 7 7 7 7 7 7 7 6 6 6 6 5 5 5 5 5 5
11 11 11 11 10 10 10 10 10 10 9 9 9 9 9 8 8 8 8 7 7 7 7 7 7 7 7 7 7 6 6 6 6 6 6 5 5 5 5 5 5 5 4
11 10 10 10 10 10 10 10 9 9 9 9 9 9 8 8 8 7 7 7 7 7 7 7 6 6 6 6 6 6 6 6 5 5 5 5 5 4 4 4 4 4 4
10 10 10 9 9 9 9 9 9 9 9 8 8 8 8 7 7 7 7 7 7 6 6 6 6 6 6 6 6 6 5 5 5 5 5 5 4 4 4 4 4 4 4
10 9 9 9 9 9 9 9 8 8 8 8 8 7 7 7 7 7 6 6 6 6 6 6 6 5 5 5 5 5 5 5 5 5 5 4 4 4 4 4 4 3 3
9 9 9 9 8 8 8 8 8 8 8 8 7 7 7 6 6 6 6 6 6 5 5 5 5 5 5 5 5 5 5 5 4 4 4 4 4 4 3 3 3 3 3
8 8 8 8 8 8 8 8 7 7 7 7 7 7 6 6 6 6 5 5 5 5 5 5 5 5 4 4 4 4 4 4 4 4 4 4 3 3 3 3 3 2 2
8 8 8 7 7 7 7 7 7 7 7 7 6 6 6 6 5 5 5 5 5 5 5 4 4 4 4 4 4 4 4 4 3 3 3 3 3 3 3 3 2 2 2
7 7 7 7 7 7 7 6 6 6 6 6 6 6 6 5 5 5 5 5 5 4 4 4 4 4 4 3 3 3 3 3 3 3 3 2 2 2 2 2 2 1 1
7 6 6 6 6 6 6 6 6 6 6 5 5 5 5 5 5 5 4 4 4 4 4 4 4 3 3 3 3 3 3 2 2 2 2 2 2 2 1 1 1 1 1
Wind_Speed
7 6 6 6 5 5 5 5 5 3 4 4 3 3 3 3 3 3 3 3 3 2 1 1 1 1 1 1 1 2 2 2 3 2 1 1 1 0 0 0 1 1 1
6 6 6 6 5 5 5 5 5 4 4 4 3 3 3 3 3 4 4 3 3 3 2 2 2 1 1 1 1 2 2 2 3 2 1 1 1 1 0 0 1 1 1
6 6 6 6 6 6 6 5 5 5 4 4 4 4 4 4 4 4 4 4 4 4 3 3 3 2 2 2 2 2 2 2 2 2 2 1 1 0 1 1 1 1 1
5 6 6 7 7 6 6 5 5 5 5 5 4 4 4 4 4 4 4 4 4 4 4 4 4 4 4 4 3 3 2 2 2 2 2 1 1 1 1 1 1 1 1
4 5 5 5 5 5 5 5 5 5 5 5 4 3 3 4 4 5 5 5 4 4 4 4 4 5 6 5 3 3 3 3 3 2 2 1 2 1 2 2 2 1 1
4 5 4 4 4 5 5 5 5 4 4 4 4 5 4 4 5 6 5 5 5 5 5 4 4 4 5 6 6 6 6 4 4 3 3 3 4 3 2 2 2 1 2
4 4 4 4 4 4 5 5 5 5 4 4 4 4 5 5 6 6 6 5 5 5 5 4 4 3 4 3 4 4 5 6 7 5 4 5 4 5 4 3 3 3 3
3 3 4 4 4 3 4 5 5 4 4 4 5 5 4 5 6 6 6 4 4 4 5 5 5 4 4 4 3 2 2 3 5 5 5 5 5 5 5 4 4 2 1
3 4 4 4 4 3 4 4 4 4 4 4 3 4 4 5 5 5 5 3 3 4 4 4 5 5 5 5 4 3 2 3 3 4 5 4 4 4 6 4 3 2 1
5 5 4 4 4 4 4 4 3 3 3 3 2 3 4 5 5 6 5 3 3 3 3 3 5 5 5 6 5 4 4 4 2 1 1 1 2 3 6 5 5 3 2
4 3 3 4 4 4 3 3 3 3 3 2 2 2 3 4 5 6 6 4 4 4 3 3 4 5 5 6 6 5 6 4 3 2 2 1 1 1 2 4 4 4 4
2 3 3 3 3 3 3 3 3 3 3 2 2 2 2 3 4 5 6 6 5 4 4 4 4 5 5 5 4 5 5 3 2 2 2 2 2 2 2 3 4 4 4
3 3 3 2 3 3 4 4 2 3 3 3 2 2 2 2 2 4 5 6 6 5 4 4 4 4 4 3 4 4 3 3 3 3 3 4 3 3 2 1 1 2 1
3 3 3 3 2 2 3 3 3 4 3 3 3 3 3 2 2 2 2 3 4 4 3 3 3 2 2 2 2 2 2 3 4 4 4 3 2 2 2 1 1 1 1
3 3 3 3 3 3 2 3 4 4 5 5 4 4 4 4 5 5 4 3 4 4 3 1 1 1 2 1 1 2 2 2 3 3 3 3 2 2 2 1 1 1 2
4 4 3 3 3 3 3 1 1 2 3 4 4 4 4 5 5 5 6 6 6 6 3 2 3 3 4 4 4 3 3 3 4 4 3 3 3 3 3 2 1 2 3
5 4 3 3 3 3 3 3 2 1 0 1 3 3 4 4 4 5 5 4 4 5 3 4 4 4 5 5 5 5 4 4 4 4 4 4 3 3 3 3 3 3 3
3 4 3 3 3 4 4 4 3 3 1 1 2 2 2 3 3 3 4 2 1 2 3 4 4 4 4 5 5 5 4 4 4 4 4 4 4 4 3 3 3 4 4
3 2 3 3 3 3 3 3 3 3 3 2 1 1 2 2 2 2 3 2 3 3 3 4 4 4 4 4 5 4 4 4 4 4 4 5 5 4 4 4 4 5 4
3 4 3 3 3 3 3 3 3 3 3 3 3 2 1 1 1 1 2 2 3 3 4 4 4 4 3 4 4 4 4 4 4 5 5 4 4 4 5 5 4 4 4
2 3 4 3 3 3 4 4 4 4 4 4 4 4 5 3 3 3 3 3 3 4 4 4 4 3 3 3 3 4 4 4 4 5 4 4 4 4 4 4 4 4 4
2 3 3 3 3 4 4 4 4 4 4 4 3 3 6 3 3 3 3 3 4 4 3 3 3 3 3 4 4 4 4 4 4 4 4 4 4 4 4 4 3 3 3
3 3 3 3 3 4 4 3 4 4 4 4 4 3 4 4 4 4 4 4 3 3 3 3 3 3 3 3 4 4 5 5 5 5 4 4 4 4 4 4 4 4 3
3 3 3 3 3 3 4 4 4 4 4 4 4 4 4 4 4 4 4 4 3 3 3 3 4 4 4 3 3 4 5 5 5 5 5 5 4 4 3 3 3 4 3
3 3 3 3 3 3 4 4 4 4 4 4 4 4 4 4 4 4 4 4 4 3 4 3 3 4 4 5 4 4 5 5 5 4 4 4 4 4 4 4 3 3 3
3 3 3 3 3 3 3 4 4 4 4 4 4 4 4 4 4 4 3 3 3 3 3 3 4 4 4 4 5 5 5 5 5 5 4 4 4 4 4 4 4 3 3
Wind_Direction
197 197 197 201 200 195 200 207 203 199 195 199 203 195 193 194 184 173 183 175 171 180 183 173 209 187 162 177 171 172 179 178 208 258 254 246 175 159 359 82 269 273 275
198 196 201 200 194 199 209 210 199 198 201 203 198 195 202 198 190 187 191 186 186 193 200 196 233 205 197 195 180 193 196 188 188 221 245 243 221 222 187 31 337 310 278
195 195 201 202 200 205 209 206 198 197 203 202 196 201 208 204 198 199 195 196 202 208 202 201 220 201 226 219 200 201 197 186 177 187 218 214 236 233 85 18 1 332 293
189 194 204 209 207 206 204 202 202 199 202 206 204 207 207 205 202 201 198 203 210 217 213 209 213 208 217 216 211 204 186 173 164 177 199 207 220 211 144 184 304 307 288
182 197 211 210 202 199 202 206 204 202 208 205 200 206 208 205 209 202 199 203 207 216 224 224 224 221 220 214 210 195 180 181 177 180 196 202 211 193 205 196 209 276 287
190 201 202 190 192 198 202 201 198 204 206 198 202 204 210 221 218 209 201 204 206 211 224 232 235 235 234 231 226 211 191 188 192 192 202 209 225 212 193 187 174 157 274
195 199 189 185 192 203 199 193 201 205 199 203 210 207 214 225 221 215 209 204 207 217 224 226 235 235 229 225 232 228 221 215 204 196 204 216 211 205 182 188 197 201 224
192 203 200 189 195 198 192 200 208 202 197 204 211 212 215 229 224 219 211 203 206 222 225 217 216 231 224 205 198 208 227 234 223 212 212 221 215 196 183 183 192 194 237
201 207 206 194 191 190 196 206 205 192 197 203 202 201 206 231 224 213 200 192 209 229 233 221 212 221 225 202 187 199 234 260 247 212 217 227 226 199 167 139 142 146 242
224 216 203 190 188 195 202 206 199 184 191 190 206 211 210 226 225 210 196 189 207 229 239 238 226 223 222 204 195 194 218 240 225 212 226 258 237 203 185 179 180 179 193
224 204 192 191 193 195 189 186 175 170 169 181 202 230 225 230 226 212 201 195 205 216 226 236 235 224 222 216 208 201 215 215 196 199 214 238 248 207 209 208 195 187 192
197 192 197 196 195 188 175 181 173 163 164 184 199 243 252 243 231 219 207 208 205 205 220 231 231 220 217 216 212 208 209 204 177 183 205 232 237 236 230 219 214 212 214
186 196 205 200 193 178 174 177 172 168 173 192 199 224 251 247 236 232 220 215 212 214 223 224 224 214 210 217 217 210 201 186 174 194 220 233 237 233 218 209 200 208 239
198 204 197 187 191 187 179 180 181 188 191 198 209 223 241 245 235 224 219 224 219 224 234 224 215 200 190 204 212 217 209 194 191 209 221 231 228 208 199 193 202 197 206
208 209 201 193 188 193 198 202 202 210 205 200 210 210 212 236 234 213 205 213 208 210 197 195 187 186 199 218 224 219 208 199 209 216 213 216 214 210 216 197 184 176 204
212 212 206 201 196 190 189 216 270 223 219 213 211 208 224 229 228 218 223 228 218 195 180 204 218 218 216 218 219 222 217 216 219 216 213 213 213 213 213 198 188 199 223
215 213 205 200 198 192 186 187 202 336 252 233 225 219 221 219 220 219 220 221 209 182 198 215 219 223 223 219 218 216 220 219 212 207 211 214 211 212 211 212 210 218 234
216 216 208 201 201 196 192 189 184 183 208 271 260 240 227 219 215 206 191 166 200 198 219 224 226 230 230 225 222 221 220 215 208 210 210 210 208 208 214 219 220 224 232
215 211 207 200 199 196 188 185 187 189 196 215 273 280 246 223 213 210 175 188 211 225 231 235 234 233 237 229 225 221 219 216 212 211 213 212 209 205 213 217 219 225 226
224 221 210 194 188 187 184 186 193 194 197 200 211 228 212 157 192 219 211 216 221 229 228 232 237 234 240 235 226 220 219 219 214 215 217 215 210 206 211 212 213 218 224
227 219 213 205 196 198 193 195 198 198 202 207 217 217 194 196 209 216 222 226 229 233 232 232 234 235 237 236 223 217 215 218 216 215 213 214 209 206 208 209 213 216 220
218 217 210 209 207 207 205 201 200 205 211 212 218 214 205 205 214 223 229 235 236 234 229 222 230 234 230 228 217 209 208 213 215 215 215 212 209 207 203 203 207 210 212
213 214 216 217 214 210 210 204 205 210 213 211 208 207 208 215 220 225 230 233 232 229 217 214 224 236 239 233 222 212 207 211 215 210 208 208 203 202 199 201 204 210 217
219 216 216 218 215 210 208 210 210 211 211 211 211 212 214 218 222 226 229 231 224 219 209 209 216 224 225 232 235 230 228 223 216 209 202 201 201 197 193 194 202 207 212
224 218 215 215 216 218 217 214 212 210 213 215 217 221 221 221 225 228 227 222 216 217 217 217 219 222 221 222 231 234 223 214 212 204 197 191 188 189 187 189 196 200 207
228 219 217 214 214 215 215 214 214 215 219 223 224 223 221 222 224 223 221 217 214 218 221 224 222 219 224 231 235 228 210 202 200 194 187 180 179 186 187 192 193 198 201
Height
1517 1519 1520 1521 1522 1523 1524 1524 1525 1525 1525 1526 1526 1526 1526 1526 1527 1527 1528 1528 1528 1529 1529 1529 1529 1530 1530 1530 1530 1530 1530 1530 1530 1530 1531 1531 1531 1531 1531 1532 1532 1532 1532
1515 1516 1517 1518 1520 1520 1521 1522 1522 1523 1523 1523 1524 1524 1524 1524 1524 1525 1525 1526 1526 1526 1527 1527 1527 1527 1527 1527 1527 1527 1527 1527 1528 1527 1528 1528 1529 1529 1529 1529 1529 1529 1530
1512 1513 1514 1515 1516 1517 1518 1519 1519 1520 1520 1521 1521 1521 1521 1522 1522 1522 1523 1523 1524 1524 1525 1525 1525 1525 1524 1524 1524 1524 1524 1524 1525 1525 1525 1526 1526 1526 1526 1527 1527 1527 1527
1509 1510 1511 1512 1513 1514 1515 1516 1516 1517 1517 1518 1518 1518 1519 1519 1519 1520 1520 1521 1521 1522 1522 1522 1522 1522 1522 1521 1521 1521 1521 1521 1522 1522 1522 1522 1523 1523 1523 1524 1524 1524 1524
1506 1507 1508 1509 1510 1511 1511 1512 1513 1514 1514 1515 1515 1515 1516 1516 1517 1517 1517 1518 1518 1519 1519 1519 1519 1519 1519 1519 1518 1518 1518 1518 1518 1519 1519 1519 1520 1520 1520 1521 1521 1521 1521
1503 1504 1505 1506 1506 1507 1508 1508 1509 1510 1511 1511 1512 1512 1513 1513 1514 1514 1515 1515 1515 1515 1515 1516 1516 1516 1516 1516 1515 1515 1515 1515 1515 1516 1516 1516 1516 1517 1517 1517 1518 1518 1518
1500 1501 1502 1502 1503 1504 1504 1505 1505 1506 1507 1507 1508 1509 1509 1510 1510 1511 1511 1512 1512 1512 1512 1512 1512 1512 1512 1512 1512 1512 1512 1512 1512 1513 1512 1513 1513 1513 1514 1514 1514 1514 1515
1497 1498 1498 1499 1499 1500 1500 1501 1502 1502 1503 1503 1504 1505 1506 1506 1507 1507 1508 1508 1508 1508 1508 1508 1508 1508 1509 1509 1508 1508 1509 1509 1509 1509 1509 1510 1510 1510 1510 1511 1511 1511 1512
1493 1494 1495 1496 1496 1496 1497 1497 1498 1498 1499 1500 1500 1501 1501 1502 1502 1503 1503 1503 1504 1504 1504 1504 1505 1505 1505 1505 1505 1504 1505 1505 1506 1506 1506 1506 1507 1507 1507 1508 1508 1508 1508
1490 1491 1491 1492 1492 1493 1493 1493 1494 1494 1495 1495 1496 1497 1497 1497 1498 1499 1499 1499 1499 1500 1500 1500 1500 1501 1501 1501 1501 1501 1501 1501 1502 1502 1503 1503 1503 1504 1504 1504 1504 1504 1504
1487 1487 1488 1488 1489 1489 1490 1490 1490 1491 1491 1491 1492 1492 1493 1493 1494 1494 1495 1495 1495 1495 1496 1496 1496 1496 1497 1497 1497 1497 1497 1498 1498 1498 1499 1499 1499 1500 1500 1500 1500 1501 1501
1483 1484 1484 1485 1485 1486 1486 1486 1487 1487 1487 1487 1488 1488 1489 1489 1490 1490 1490 1491 1491 1491 1491 1491 1492 1492 1492 1493 1493 1493 1493 1494 1494 1494 1494 1494 1494 1495 1495 1496 1496 1497 1497
1480 1480 1480 1481 1481 1482 1482 1483 1483 1483 1483 1483 1484 1484 1484 1485 1485 1486 1486 1486 1486 1486 1486 1487 1487 1487 1488 1488 1488 1489 1489 1489 1489 1489 1489 1490 1490 1491 1492 1492 1492 1493 1493
1476 1476 1476 1476 1477 1477 1478 1479 1479 1480 1480 1480 1480 1480 1480 1480 1480 1480 1480 1481 1481 1481 1482 1482 1483 1483 1483 1483 1484 1484 1484 1485 1485 1485 1485 1486 1486 1487 1487 1487 1487 1488 1488
1472 1472 1472 1472 1473 1473 1474 1474 1475 1476 1476 1476 1476 1476 1476 1475 1476 1476 1476 1476 1476 1476 1477 1477 1477 1478 1478 1478 1479 1479 1479 1480 1480 1480 1481 1481 1481 1482 1482 1482 1483 1483 1483
1467 1467 1467 1468 1468 1469 1469 1470 1470 1472 1472 1472 1472 1472 1472 1472 1472 1472 1472 1472 1472 1472 1472 1471 1472 1472 1472 1473 1473 1474 1474 1475 1475 1475 1476 1476 1476 1477 1477 1477 1478 1478 1478
1463 1463 1463 1464 1464 1464 1465 1465 1465 1466 1467 1468 1468 1468 1468 1468 1467 1467 1467 1467 1467 1467 1466 1466 1466 1467 1467 1467 1468 1468 1469 1470 1470 1470 1471 1471 1471 1472 1472 1473 1473 1473 1473
1459 1459 1459 1459 1460 1460 1460 1461 1461 1462 1462 1462 1463 1463 1463 1463 1463 1462 1462 1462 1461 1461 1461 1461 1461 1461 1462 1462 1462 1463 1464 1464 1465 1465 1466 1466 1467 1467 1468 1468 1468 1469 1469
1455 1455 1455 1455 1455 1456 1456 1456 1457 1458 1458 1458 1458 1458 1459 1458 1458 1458 1457 1457 1456 1456 1456 1456 1456 1456 1456 1456 1457 1457 1458 1459 1459 1460 1461 1461 1462 1462 1463 1463 1464 1464 1464
1451 1451 1451 1451 1451 1451 1452 1452 1452 1453 1453 1453 1453 1454 1454 1453 1453 1452 1452 1452 1451 1451 1451 1450 1451 1451 1451 1451 1451 1451 1452 1453 1454 1454 1455 1456 1456 1457 1457 1458 1458 1459 1459
1446 1446 1446 1446 1446 1446 1447 1447 1447 1448 1448 1448 1448 1449 1449 1448 1448 1448 1447 1447 1447 1446 1446 1446 1446 1445 1445 1445 1446 1446 1446 1447 1448 1449 1449 1450 1451 1451 1452 1453 1453 1454 1454
1442 1441 1441 1441 1441 1441 1442 1442 1442 1442 1443 1443 1443 1444 1444 1444 1443 1443 1443 1442 1442 1442 1442 1441 1441 1440 1440 1440 1440 1440 1441 1442 1443 1443 1444 1445 1446 1446 1447 1448 1448 1448 1448
1437 1436 1436 1436 1436 1436 1436 1436 1437 1437 1437 1438 1438 1438 1438 1438 1438 1438 1438 1438 1437 1437 1437 1436 1436 1435 1435 1435 1435 1435 1436 1436 1438 1439 1439 1440 1441 1441 1442 1442 1443 1443 1443
1432 1431 1431 1431 1431 1431 1431 1431 1431 1432 1432 1433 1433 1433 1433 1433 1433 1433 1433 1433 1432 1432 1432 1431 1431 1430 1430 1430 1430 1430 1431 1432 1433 1433 1434 1435 1436 1436 1437 1437 1438 1438 1439
1427 1426 1426 1425 1425 1425 1425 1426 1426 1426 1427 1427 1427 1427 1427 1427 1427 1427 1428 1428 1427 1427 1427 1426 1426 1425 1425 1425 1425 1425 1425 1426 1427 1428 1429 1430 1430 1431 1432 1432 1433 1433 1434
1422 1421 1421 1421 1420 1420 1420 1420 1421 1421 1422 1422 1422 1422 1422 1422 1422 1422 1422 1422 1422 1422 1421 1421 1421 1421 1421 1420 1420 1420 1421 1421 1422 1423 1424 1425 1425 1426 1427 1427 1428 1429 1429